Regional Weather Roundup
Issued by NWS

Home | Current Version | Previous Version | Text Only | Print | Product List | Glossary On
Versions: 1 2 3 4 5 6 7 8 9 10 11 12 13 14 15 16 17 18 19 20 21 22 23 24 25 26 27 28 29 30 31 32 33 34 35 36 37 38 39 40 41 42 43 44 45 46 47 48 49 50
000
ASUS46 KSEW 051510
RWRWA

WASHINGTON REGIONAL WEATHER ROUNDUP
NATIONAL WEATHER SERVICE SEATTLE WA
800 AM PDT TUE MAY 05 2015

NOTE:"FAIR" INDICATES FEW OR NO CLOUDS BELOW 12,000 FEET WITH NO
SIGNIFICANT WEATHER AND/OR OBSTRUCTIONS TO VISIBILITY.

WAZ505-507>509-051600-
SEATTLE, TACOMA, EVERETT, AND VICINITY

CITY           SKY/WX    TMP DP  RH WIND       PRES   REMARKS
EVERETT        CLOUDY    47  40  76 S12       30.00R
BOEING FIELD   LGT RAIN  49  42  77 S8        30.02R
RENTON         PTSUNNY   49  43  80 SE5       30.02S
SEATAC AIRPORT PTSUNNY   49  45  86 S12       30.02R
JBLM-MCCHORD   LGT RAIN  48  48 100 S10       30.03R
PUYALLUP       CLOUDY    46  46 100 CALM      30.04R
BREMERTON      CLOUDY    45  45 100 S10       30.04R
JBLM-FT LEWIS  LGT RAIN  48  47  97 S10       30.02R
TACOMA NARROWS PTSUNNY   49  44  83 S13       30.03R
$$

WAZ001-503-506-510-514-515-051600-
NORTH INTERIOR

CITY           SKY/WX    TMP DP  RH WIND       PRES   REMARKS
BELLINGHAM     LGT RAIN  45  44  97 SE7       29.97R
FRIDAY HARBOR  LGT RAIN  46  43  89 VRB5      29.99R
EASTSOUND      PTSUNNY   46  43  87 S6        29.96R
PORT ANGELES   LGT RAIN  45  42  89 W10       29.99R
NAS WHIDBEY    LGT RAIN  49  43  80 NW3       30.00R
ARLINGTON      CLOUDY    46  39  76 S12       30.01R
BURLINGTON     PTSUNNY   43  41  93 NE6       30.00R FOG
$$

WAZ020-022-039-040-504-511-512-051600-
SOUTHWEST INTERIOR

CITY           SKY/WX    TMP DP  RH WIND       PRES   REMARKS
SHELTON        PTSUNNY   46  43  89 SW7       30.00R
OLYMPIA        HVY RAIN  46  44  93 S8        30.04R FOG
CHEHALIS       CLOUDY    50  45  81 S7        30.05R
KELSO          PTSUNNY   48  43  81 S8        30.11S
VANCOUVER      CLOUDY    51  43  74 SW5       30.09R
SCAPPOOSE, OR  MOSUNNY   51  44  77 S6        30.08R
PORTLAND, OR   PTSUNNY   51  45  79 S7        30.10R
$$

WAZ021-516-517-051600-
WASHINGTON COAST

CITY           SKY/WX    TMP DP  RH WIND       PRES   REMARKS
FORKS          LGT RAIN  45  44  97 E5        30.00R FOG
HOQUIAM        PTSUNNY   49  43  80 W9        30.03R
ASTORIA, OR    MOSUNNY   52  46  80 W8        30.06R
$$

WAZ019-023-024-040-518-519-051600-
CASCADE MOUNTAINS AND COLUMBIA GORGE

CITY           SKY/WX    TMP DP  RH WIND       PRES   REMARKS
TROUTDALE, OR  CLOUDY    51  44  77 SW8       30.09R
THE DALLES, OR MOSUNNY   54  39  57 N9        30.05R
$$

WAZ026-027-041>044-520-521-051600-
EAST SLOPES

CITY           SKY/WX    TMP DP  RH WIND       PRES   REMARKS
OMAK           SUNNY     53  29  39 S9        29.87R
WENATCHEE      SUNNY     53  29  39 VRB5      29.93R
ELLENSBURG     SUNNY     49  34  56 NW16      29.95R
YAKIMA         SUNNY     52  33  48 NE5       29.97R
$$

WAZ028-034-035-051600-
COLUMBIA BASIN

CITY           SKY/WX    TMP DP  RH WIND       PRES   REMARKS
EPHRATA        SUNNY     54  28  36 SW12      29.92R
MOSES LAKE     SUNNY     52  34  50 SW8       29.94R
PASCO          SUNNY     55  38  52 SW13      30.00R
HERMISTON, OR  SUNNY     53  38  56 SW14      30.02S
$$

WAZ036>038-051600-
NORTHEAST WASHINGTON

CITY           SKY/WX    TMP DP  RH WIND       PRES   REMARKS
SPOKANE GEIGER MOSUNNY   46  33  60 S14       29.93R
SPOKANE FELTS  MOSUNNY   50  36  58 SW13      29.95R
FAIRCHILD AFB  SUNNY     46  33  60 S14       29.92R
COEURDALENE,ID MOSUNNY   48  27  43 S10       29.96S
DEER PARK      SUNNY     47  34  60 S9        29.93R
$$

WAZ029>033-051600-
SOUTHEAST WASHINGTON

CITY           SKY/WX    TMP DP  RH WIND       PRES   REMARKS
PULLMAN        MOSUNNY   46  35  65 W7G20     30.00R
LEWISTON, ID   CLOUDY    54  34  46 NW10G21   29.96R
WALLA WALLA    PTSUNNY   53  37  54 S16G22    30.02R
PENDLETON, OR  CLOUDY    49  35  58 W16       30.03R
$$


USA.gov is the U.S. government's official web portal to all federal, state and local government web resources and services.